Weather History for PHOG - July, 2013

Change the Weather History Date:

Monday, July 8, 2013

  Actual Average Record
Temperature  
Mean Temperature 80 °F 79 °F  
Max Temperature 91 °F 87 °F 94 °F (1980)
Min Temperature 68 °F 71 °F 61 °F (1974)
Degree Days  
Heating Degree Days 0 0  
Month to date heating degree days 0 0  
Since 1 June heating degree days 0 0  
Since 1 July heating degree days 0 0  
Cooling Degree Days 15 14  
Month to date cooling degree days 110 112  
Year to date cooling degree days 1936 1759  
Since 1 June cooling degree days 552 500  
Growing Degree Days 30 (Base 50)    
Moisture  
Dew Point 70 °F    
Average Humidity 77    
Maximum Humidity 97    
Minimum Humidity 56    
Precipitation  
Precipitation 0.00 in 0.02 in 0.11 in (2005)
Month to date precipitation 0.02 0.10  
Year to date precipitation 7.28 9.80  
Snow  
Snow 0.00 in - - ()
Month to date snowfall 0.0  
Since 1 June snowfall 0.0  
Since 1 July snowfall 0.0  
Snow Depth 0.00 in    
Sea Level Pressure  
Sea Level Pressure 29.98 in    
Wind  
Wind Speed 9 mph (ENE)    
Max Wind Speed 23 mph    
Max Gust Speed 30 mph    
Visibility 10 miles    
Events      
T = Trace of Precipitation, MM = Missing Value Source: NWS Daily Summary

Daily Weather History Graph

Daily Weather History Graph

Search for Another Location

Airport or City:

Trip Planner

Search our weather history database for the weather conditions in past years. The results will help you decide how hot, cold, wet, or windy it might be!

Date:

Astronomy

Jul. 08, 2013 Rise Set
Actual Time 5:50 AM HST 7:10 PM HST
Civil Twilight 5:26 AM HST 7:35 PM HST
Nautical Twilight 4:57 AM HST 8:04 PM HST
Astronomical Twilight 4:26 AM HST 8:34 PM HST
Moon 6:18 AM HST (7/8) 7:34 PM HST (7/8)
Length of Visible Light 14h 09m
Length of Day
13h 20m
New Moon, 0% of the Moon is Illuminated
Jul 8
New Moon
Jul 15
First Quarter
Jul 22
Full
Jul 29
Last Quarter
Aug 6
New

Hourly Weather History & Observations

Time (HST) Temp. Heat Index Dew Point Humidity Pressure Visibility Wind Dir Wind Speed Gust Speed Precip Events Conditions
12:54 AM 73.9 °F - 68.0 °F 82% 29.98 in 10.0 mi Calm Calm - N/A   Clear
1:54 AM 72.0 °F - 69.1 °F 91% 29.96 in 10.0 mi Calm Calm - N/A   Overcast
2:54 AM 70.0 °F - 68.0 °F 93% 29.95 in 10.0 mi East 4.6 mph - N/A   Clear
3:54 AM 71.1 °F - 66.9 °F 87% 29.94 in 10.0 mi ENE 4.6 mph - N/A   Clear
4:54 AM 70.0 °F - 66.9 °F 90% 29.94 in 10.0 mi NNW 5.8 mph - N/A   Scattered Clouds
5:54 AM 75.9 °F - 71.1 °F 85% 29.96 in 10.0 mi NE 13.8 mph - N/A   Clear
6:54 AM 72.0 °F - 68.0 °F 87% 29.97 in 10.0 mi East 5.8 mph - N/A   Scattered Clouds
7:54 AM 79.0 °F - 70.0 °F 74% 29.98 in 10.0 mi ESE 5.8 mph - N/A   Partly Cloudy
8:54 AM 82.0 °F 84.9 °F 68.0 °F 62% 29.99 in 10.0 mi South 4.6 mph - N/A   Scattered Clouds
9:54 AM 86.0 °F 90.1 °F 69.1 °F 57% 29.99 in 10.0 mi South 3.5 mph - N/A   Partly Cloudy
10:54 AM 88.0 °F 93.8 °F 71.1 °F 57% 29.97 in 10.0 mi ENE 15.0 mph 23.0 mph N/A   Scattered Clouds
11:54 AM 86.0 °F 91.5 °F 71.1 °F 61% 29.97 in 10.0 mi NE 15.0 mph 23.0 mph N/A   Scattered Clouds
12:54 PM 90.0 °F 97.9 °F 73.0 °F 57% 29.96 in 10.0 mi ENE 17.3 mph 27.6 mph N/A   Scattered Clouds
1:54 PM 90.0 °F 96.9 °F 72.0 °F 55% 29.94 in 10.0 mi ENE 20.7 mph 26.5 mph N/A   Partly Cloudy
2:54 PM 90.0 °F 97.9 °F 73.0 °F 57% 29.94 in 10.0 mi ENE 19.6 mph 27.6 mph N/A   Partly Cloudy
3:54 PM 91.0 °F 97.6 °F 71.1 °F 52% 29.94 in 10.0 mi ENE 17.3 mph 23.0 mph N/A   Partly Cloudy
4:54 PM 88.0 °F 92.9 °F 70.0 °F 55% 29.95 in 10.0 mi ENE 15.0 mph - N/A   Partly Cloudy
5:54 PM 86.0 °F 90.1 °F 69.1 °F 57% 29.96 in 10.0 mi ENE 10.4 mph 21.9 mph N/A   Scattered Clouds
6:54 PM 82.0 °F 86.3 °F 71.1 °F 69% 29.98 in 10.0 mi ENE 9.2 mph 18.4 mph N/A   Scattered Clouds
7:54 PM 80.1 °F 83.6 °F 71.1 °F 74% 30.01 in 10.0 mi ESE 6.9 mph - N/A   Mostly Cloudy
8:54 PM 78.1 °F - 70.0 °F 76% 30.03 in 10.0 mi ENE 11.5 mph - N/A   Scattered Clouds
9:54 PM 78.1 °F - 70.0 °F 76% 30.04 in 10.0 mi East 9.2 mph 18.4 mph N/A   Partly Cloudy
10:54 PM 77.0 °F - 69.1 °F 76% 30.06 in 10.0 mi East 9.2 mph - N/A   Clear
11:54 PM 78.1 °F - 68.0 °F 71% 30.05 in 10.0 mi East 11.5 mph 17.3 mph N/A   Clear